Time,TemperatureF,DewpointF,PressureIn,WindDirection,WindDirectionDegrees,WindSpeedMPH,WindSpeedGustMPH,Humidity,HourlyPrecipIn,Conditions,Clouds,dailyrainin,SoftwareType,DateUTC
2013-03-19 00:00:00,41.2,36.4,29.52,South,180,4.6,4.6,83,0.00,RA,,0.00,WeatherDisplay:10.37,2013-03-19 04:00:00,
2013-03-19 00:02:00,41.2,36.4,29.52,SE,135,2.3,2.3,83,0.00,RA,,0.00,WeatherDisplay:10.37,2013-03-19 04:02:00,
2013-03-19 00:07:00,41.0,36.2,29.52,SE,135,3.5,3.5,83,0.00,RA,,0.00,WeatherDisplay:10.37,2013-03-19 04:07:00,
2013-03-19 00:12:00,41.0,36.5,29.52,SE,135,3.5,3.5,84,0.00,OVC,,0.00,WeatherDisplay:10.37,2013-03-19 04:12:00,
2013-03-19 00:16:00,41.0,36.5,29.52,South,180,3.5,3.5,84,0.00,OVC,,0.00,WeatherDisplay:10.37,2013-03-19 04:16:00,
2013-03-19 00:21:00,41.0,36.8,29.52,South,180,2.7,2.7,85,0.00,OVC,,0.00,WeatherDisplay:10.37,2013-03-19 04:21:00,
2013-03-19 00:26:00,41.0,36.8,29.53,SW,225,3.5,3.5,85,0.00,OVC,,0.00,WeatherDisplay:10.37,2013-03-19 04:26:00,
2013-03-19 00:31:00,41.0,36.8,29.53,SSW,202,1.7,1.7,85,0.00,OVC,,0.00,WeatherDisplay:10.37,2013-03-19 04:31:00,
2013-03-19 00:36:00,41.0,36.8,29.53,WSW,248,2.3,2.3,85,0.00,OVC,,0.00,WeatherDisplay:10.37,2013-03-19 04:36:00,
2013-03-19 00:42:00,41.0,36.8,29.53,SE,135,2.7,2.7,85,0.00,OVC,,0.00,WeatherDisplay:10.37,2013-03-19 04:42:00,
2013-03-19 00:47:00,41.0,36.8,29.53,ESE,112,2.3,2.4,85,0.00,OVC,,0.00,WeatherDisplay:10.37,2013-03-19 04:47:00,
2013-03-19 00:52:00,41.0,37.1,29.52,South,180,2.3,2.3,86,0.00,OVC,,0.00,WeatherDisplay:10.37,2013-03-19 04:52:00,
2013-03-19 00:57:00,41.0,37.1,29.52,South,180,2.7,2.7,86,0.00,OVC,,0.00,WeatherDisplay:10.37,2013-03-19 04:57:00,
2013-03-19 01:02:00,41.0,37.1,29.52,SW,225,1.1,0.0,86,0.00,OVC,,0.00,WeatherDisplay:10.37,2013-03-19 05:02:00,
2013-03-19 01:07:00,41.2,37.6,29.52,South,180,3.5,3.5,87,0.00,OVC,,0.00,WeatherDisplay:10.37,2013-03-19 05:07:00,
2013-03-19 01:12:00,41.2,37.9,29.52,SW,225,2.3,2.3,88,0.00,OVC,,0.00,WeatherDisplay:10.37,2013-03-19 05:12:00,
2013-03-19 01:17:00,41.0,37.7,29.52,West,270,3.5,3.5,88,0.00,OVC,,0.00,WeatherDisplay:10.37,2013-03-19 05:17:00,
2013-03-19 01:22:00,41.0,38.0,29.52,WSW,248,2.3,2.4,89,0.00,OVC,,0.00,WeatherDisplay:10.37,2013-03-19 05:22:00,
2013-03-19 01:27:00,40.8,38.1,29.52,SSW,202,2.3,2.3,90,0.00,OVC,,0.00,WeatherDisplay:10.37,2013-03-19 05:27:00,
2013-03-19 01:32:00,40.8,38.4,29.52,WSW,248,2.3,2.3,91,0.00,OVC,,0.00,WeatherDisplay:10.37,2013-03-19 05:32:00,
2013-03-19 01:37:00,40.8,38.7,29.52,SW,225,2.3,2.3,92,0.00,OVC,,0.00,WeatherDisplay:10.37,2013-03-19 05:37:00,
2013-03-19 01:42:00,40.8,38.9,29.52,SSW,202,2.3,2.5,93,0.00,OVC,,0.00,WeatherDisplay:10.37,2013-03-19 05:42:00,
2013-03-19 01:47:00,40.8,38.9,29.52,SW,225,2.3,2.3,93,0.00,OVC,,0.00,WeatherDisplay:10.37,2013-03-19 05:47:00,
2013-03-19 01:52:00,40.8,39.2,29.52,SW,225,0.0,0.0,94,0.01,RA,,0.01,WeatherDisplay:10.37,2013-03-19 05:52:00,
2013-03-19 01:57:00,40.8,39.2,29.52,SW,225,2.7,2.7,94,0.01,RA,,0.01,WeatherDisplay:10.37,2013-03-19 05:57:00,
2013-03-19 02:02:00,40.8,39.2,29.53,SSE,158,0.0,0.0,94,0.01,-RA,,0.01,WeatherDisplay:10.37,2013-03-19 06:02:00,
2013-03-19 02:07:00,40.8,39.5,29.53,WSW,248,2.3,2.3,95,0.01,-RA,,0.01,WeatherDisplay:10.37,2013-03-19 06:07:00,
2013-03-19 02:12:00,40.8,39.5,29.53,SW,225,2.3,2.3,95,0.01,-RA,,0.01,WeatherDisplay:10.37,2013-03-19 06:12:00,
2013-03-19 02:17:00,40.8,39.5,29.53,WSW,248,3.5,3.5,95,0.01,-RA,,0.01,WeatherDisplay:10.37,2013-03-19 06:17:00,
2013-03-19 02:22:00,40.8,39.5,29.53,WSW,248,3.5,3.5,95,0.01,-RA,,0.01,WeatherDisplay:10.37,2013-03-19 06:22:00,
2013-03-19 02:27:00,41.0,39.9,29.53,SSW,202,3.5,3.5,96,0.01,-RA,,0.01,WeatherDisplay:10.37,2013-03-19 06:27:00,
2013-03-19 02:32:00,41.4,40.6,29.53,SW,225,3.7,3.8,97,0.01,OVC,,0.01,WeatherDisplay:10.37,2013-03-19 06:32:00,
2013-03-19 02:37:00,41.5,40.7,29.53,SW,225,4.7,4.7,97,0.01,OVC,,0.01,WeatherDisplay:10.37,2013-03-19 06:37:00,
2013-03-19 02:42:00,41.9,41.1,29.53,SW,225,4.6,4.6,97,0.01,OVC,,0.01,WeatherDisplay:10.37,2013-03-19 06:42:00,
2013-03-19 02:47:00,41.9,41.1,29.53,WSW,248,8.8,8.8,97,0.01,OVC,,0.01,WeatherDisplay:10.37,2013-03-19 06:47:00,
2013-03-19 02:52:00,42.4,41.6,29.54,SW,225,14.5,14.5,97,0.00,OVC,,0.01,WeatherDisplay:10.37,2013-03-19 06:52:00,
2013-03-19 02:57:00,42.4,41.6,29.54,WSW,248,11.5,11.5,97,0.00,OVC,,0.01,WeatherDisplay:10.37,2013-03-19 06:57:00,
2013-03-19 03:02:00,42.4,41.6,29.54,WSW,248,12.7,12.7,97,0.00,OVC,,0.01,WeatherDisplay:10.37,2013-03-19 07:02:00,
2013-03-19 03:07:00,42.4,41.6,29.54,SW,225,15.0,15.0,97,0.00,OVC,,0.01,WeatherDisplay:10.37,2013-03-19 07:07:00,
2013-03-19 03:12:00,42.3,41.5,29.54,WSW,248,15.0,15.0,97,0.00,OVC,,0.01,WeatherDisplay:10.37,2013-03-19 07:12:00,
2013-03-19 03:17:00,42.1,41.0,29.54,West,270,19.6,19.6,96,0.00,OVC,,0.01,WeatherDisplay:10.37,2013-03-19 07:17:00,
2013-03-19 03:22:00,41.9,40.6,29.54,West,270,16.1,16.1,95,0.00,OVC,,0.01,WeatherDisplay:10.37,2013-03-19 07:22:00,
2013-03-19 03:27:00,41.7,40.4,29.54,WSW,248,15.0,15.0,95,0.00,OVC,,0.01,WeatherDisplay:10.37,2013-03-19 07:27:00,
2013-03-19 03:32:00,41.7,40.1,29.54,SW,225,15.0,15.0,94,0.00,OVC,,0.01,WeatherDisplay:10.37,2013-03-19 07:32:00,
2013-03-19 03:37:00,41.7,39.8,29.55,SW,225,17.1,17.1,93,0.00,OVC,,0.01,WeatherDisplay:10.37,2013-03-19 07:37:00,
2013-03-19 03:43:00,41.5,39.6,29.55,West,270,17.1,17.1,93,0.00,OVC,,0.01,WeatherDisplay:10.37,2013-03-19 07:43:00,
2013-03-19 03:48:00,41.4,39.3,29.55,WSW,248,16.1,16.1,92,0.00,OVC,,0.01,WeatherDisplay:10.37,2013-03-19 07:48:00,
2013-03-19 03:53:00,41.2,39.1,29.55,WSW,248,17.6,17.6,92,0.00,OVC,,0.01,WeatherDisplay:10.37,2013-03-19 07:53:00,
2013-03-19 03:58:00,41.2,37.9,29.55,West,270,19.6,19.6,88,0.00,OVC,,0.01,WeatherDisplay:10.37,2013-03-19 07:58:00,
2013-03-19 04:03:00,41.0,37.7,29.55,SW,225,17.3,17.3,88,0.00,OVC,,0.01,WeatherDisplay:10.37,2013-03-19 08:03:00,
2013-03-19 04:08:00,41.0,37.4,29.55,WSW,248,16.1,16.1,87,0.00,OVC,,0.01,WeatherDisplay:10.37,2013-03-19 08:08:00,
2013-03-19 04:13:00,40.8,37.8,29.56,SW,225,18.4,18.4,89,0.00,OVC,,0.01,WeatherDisplay:10.37,2013-03-19 08:13:00,
2013-03-19 04:18:00,40.5,38.1,29.56,SW,225,16.1,16.1,91,0.00,OVC,,0.01,WeatherDisplay:10.37,2013-03-19 08:18:00,
2013-03-19 04:23:00,40.1,38.2,29.56,SW,225,16.1,16.1,93,0.00,OVC,,0.01,WeatherDisplay:10.37,2013-03-19 08:23:00,
2013-03-19 04:28:00,39.9,38.3,29.56,WSW,248,13.8,13.8,94,0.00,OVC,,0.01,WeatherDisplay:10.37,2013-03-19 08:28:00,
2013-03-19 04:33:00,39.7,38.1,29.56,West,270,20.7,20.7,94,0.00,OVC,,0.01,WeatherDisplay:10.37,2013-03-19 08:33:00,
2013-03-19 04:38:00,39.6,38.0,29.57,SW,225,22.2,22.2,94,0.00,OVC,,0.01,WeatherDisplay:10.37,2013-03-19 08:38:00,
2013-03-19 04:43:00,39.0,37.4,29.57,WSW,248,24.2,24.2,94,0.01,RA,,0.02,WeatherDisplay:10.37,2013-03-19 08:43:00,
2013-03-19 04:48:00,38.8,37.2,29.57,West,270,18.4,18.4,94,0.01,RA,,0.02,WeatherDisplay:10.37,2013-03-19 08:48:00,
2013-03-19 04:53:00,38.7,37.1,29.58,WSW,248,16.1,16.1,94,0.01,OVC,,0.02,WeatherDisplay:10.37,2013-03-19 08:53:00,
2013-03-19 04:58:00,38.5,36.9,29.58,West,270,13.8,13.8,94,0.01,OVC,,0.02,WeatherDisplay:10.37,2013-03-19 08:58:00,
2013-03-19 05:03:00,37.6,36.0,29.59,West,270,19.1,19.1,94,0.01,OVC,,0.02,WeatherDisplay:10.37,2013-03-19 09:03:00,
2013-03-19 05:08:00,37.2,35.6,29.59,WSW,248,19.6,19.6,94,0.01,OVC,,0.02,WeatherDisplay:10.37,2013-03-19 09:08:00,
2013-03-19 05:13:00,37.0,35.4,29.59,SW,225,13.0,13.0,94,0.01,OVC,,0.02,WeatherDisplay:10.37,2013-03-19 09:13:00,
2013-03-19 05:18:00,36.9,35.1,29.60,West,270,13.8,13.8,93,0.01,OVC,,0.02,WeatherDisplay:10.37,2013-03-19 09:18:00,
2013-03-19 05:23:00,36.7,34.9,29.60,West,270,13.0,13.5,93,0.01,OVC,,0.02,WeatherDisplay:10.37,2013-03-19 09:23:00,
2013-03-19 05:28:00,36.7,34.9,29.61,SW,225,12.7,12.7,93,0.01,OVC,,0.02,WeatherDisplay:10.37,2013-03-19 09:28:00,
2013-03-19 05:33:00,36.5,34.7,29.61,SW,225,9.9,9.9,93,0.01,OVC,,0.02,WeatherDisplay:10.37,2013-03-19 09:33:00,
2013-03-19 05:38:00,36.5,34.7,29.62,SW,225,9.9,9.9,93,0.01,OVC,,0.02,WeatherDisplay:10.37,2013-03-19 09:38:00,
2013-03-19 05:43:00,36.5,34.7,29.62,WSW,248,10.4,10.4,93,0.00,OVC,,0.02,WeatherDisplay:10.37,2013-03-19 09:43:00,
2013-03-19 05:48:00,36.3,34.2,29.62,SW,225,10.9,10.9,92,0.00,OVC,,0.02,WeatherDisplay:10.37,2013-03-19 09:48:00,
2013-03-19 05:53:00,36.3,33.6,29.62,SW,225,11.5,11.5,90,0.00,OVC,,0.02,WeatherDisplay:10.37,2013-03-19 09:53:00,
2013-03-19 05:58:00,36.1,33.5,29.62,SW,225,13.8,13.8,90,0.00,OVC,,0.02,WeatherDisplay:10.37,2013-03-19 09:58:00,
2013-03-19 06:03:00,36.1,33.2,29.62,WSW,248,15.0,15.0,89,0.00,OVC,,0.02,WeatherDisplay:10.37,2013-03-19 10:03:00,
2013-03-19 06:08:00,36.1,33.2,29.62,SW,225,12.7,12.7,89,0.00,OVC,,0.02,WeatherDisplay:10.37,2013-03-19 10:08:00,
2013-03-19 06:13:00,36.1,33.2,29.63,SW,225,15.0,15.0,89,0.00,OVC,,0.02,WeatherDisplay:10.37,2013-03-19 10:13:00,
2013-03-19 06:18:00,36.3,33.1,29.63,SW,225,16.1,16.1,88,0.00,OVC,,0.02,WeatherDisplay:10.37,2013-03-19 10:18:00,
2013-03-19 06:23:00,36.1,33.2,29.63,SSW,202,13.8,13.8,89,0.00,OVC,,0.02,WeatherDisplay:10.37,2013-03-19 10:23:00,
2013-03-19 06:28:00,36.1,33.2,29.64,SW,225,15.0,15.0,89,0.00,OVC,,0.02,WeatherDisplay:10.37,2013-03-19 10:28:00,
2013-03-19 06:33:00,36.0,32.8,29.64,SW,225,15.0,15.0,88,0.00,OVC,,0.02,WeatherDisplay:10.37,2013-03-19 10:33:00,
2013-03-19 06:38:00,35.8,32.6,29.63,SSW,202,6.9,6.9,88,0.00,OVC,,0.02,WeatherDisplay:10.37,2013-03-19 10:38:00,
2013-03-19 06:43:00,35.8,32.0,29.63,SSW,202,10.4,10.4,86,0.00,OVC,,0.02,WeatherDisplay:10.37,2013-03-19 10:43:00,
2013-03-19 06:48:00,35.6,31.2,29.63,SSW,202,12.4,12.4,84,0.00,OVC,,0.02,WeatherDisplay:10.37,2013-03-19 10:48:00,
2013-03-19 06:53:00,35.6,31.2,29.63,SW,225,10.4,11.1,84,0.00,OVC,,0.02,WeatherDisplay:10.37,2013-03-19 10:53:00,
2013-03-19 06:58:00,35.8,30.2,29.63,SSW,202,14.0,14.0,80,0.00,OVC,,0.02,WeatherDisplay:10.37,2013-03-19 10:58:00,
2013-03-19 07:03:00,36.0,30.1,29.64,SW,225,13.0,13.0,79,0.00,OVC,,0.02,WeatherDisplay:10.37,2013-03-19 11:03:00,
2013-03-19 07:08:00,36.0,29.8,29.64,SW,225,15.0,15.0,78,0.00,OVC,,0.02,WeatherDisplay:10.37,2013-03-19 11:08:00,
2013-03-19 07:13:00,36.0,30.1,29.65,West,270,12.4,12.4,79,0.00,OVC,,0.02,WeatherDisplay:10.37,2013-03-19 11:13:00,
2013-03-19 07:18:00,36.0,30.1,29.65,SW,225,9.2,9.2,79,0.00,OVC,,0.02,WeatherDisplay:10.37,2013-03-19 11:18:00,
2013-03-19 07:23:00,36.0,29.8,29.65,WSW,248,12.4,12.4,78,0.00,OVC,,0.02,WeatherDisplay:10.37,2013-03-19 11:23:00,
2013-03-19 07:28:00,36.0,29.8,29.65,WSW,248,9.2,9.2,78,0.00,OVC,,0.02,WeatherDisplay:10.37,2013-03-19 11:28:00,
2013-03-19 07:33:00,35.8,29.9,29.65,WSW,248,6.3,6.3,79,0.00,OVC,,0.02,WeatherDisplay:10.37,2013-03-19 11:33:00,
2013-03-19 07:38:00,35.8,30.8,29.65,SW,225,10.4,10.4,82,0.00,OVC,,0.02,WeatherDisplay:10.37,2013-03-19 11:38:00,
2013-03-19 07:43:00,35.6,30.6,29.65,WSW,248,8.1,8.1,82,0.00,OVC,,0.02,WeatherDisplay:10.37,2013-03-19 11:43:00,
2013-03-19 07:48:00,35.4,30.5,29.65,SW,225,8.1,8.1,82,0.00,OVC,,0.02,WeatherDisplay:10.37,2013-03-19 11:48:00,
2013-03-19 07:53:00,35.4,30.8,29.65,SW,225,5.8,5.9,83,0.00,OVC,,0.02,WeatherDisplay:10.37,2013-03-19 11:53:00,
2013-03-19 07:58:00,35.4,30.1,29.65,SSW,202,6.8,6.8,81,0.00,OVC,,0.02,WeatherDisplay:10.37,2013-03-19 11:58:00,
2013-03-19 08:03:00,35.4,29.8,29.65,SW,225,6.9,6.9,80,0.00,OVC,,0.02,WeatherDisplay:10.37,2013-03-19 12:03:00,
2013-03-19 08:08:00,35.6,29.4,29.65,SW,225,7.3,7.3,78,0.00,OVC,,0.02,WeatherDisplay:10.37,2013-03-19 12:08:00,
2013-03-19 08:13:00,35.8,29.3,29.64,SW,225,9.4,9.4,77,0.00,OVC,,0.02,WeatherDisplay:10.37,2013-03-19 12:13:00,
2013-03-19 08:18:00,35.8,29.6,29.64,SW,225,6.9,6.9,78,0.00,OVC,,0.02,WeatherDisplay:10.37,2013-03-19 12:18:00,
2013-03-19 08:23:00,35.8,29.6,29.64,SW,225,6.9,6.9,78,0.00,OVC,,0.02,WeatherDisplay:10.37,2013-03-19 12:23:00,
2013-03-19 08:28:00,36.0,29.5,29.64,SW,225,15.0,15.0,77,0.00,OVC,,0.02,WeatherDisplay:10.37,2013-03-19 12:28:00,
2013-03-19 08:33:00,36.0,29.5,29.64,SW,225,8.8,8.8,77,0.00,OVC,,0.02,WeatherDisplay:10.37,2013-03-19 12:33:00,
2013-03-19 08:38:00,36.3,29.8,29.63,SSW,202,10.9,10.9,77,0.00,OVC,,0.02,WeatherDisplay:10.37,2013-03-19 12:38:00,
2013-03-19 08:43:00,36.3,30.1,29.63,SSW,202,8.1,8.1,78,0.00,OVC,,0.02,WeatherDisplay:10.37,2013-03-19 12:43:00,
2013-03-19 08:48:00,36.3,29.8,29.63,SW,225,11.5,11.5,77,0.00,OVC,,0.02,WeatherDisplay:10.37,2013-03-19 12:48:00,
2013-03-19 08:53:00,36.5,30.3,29.63,SSW,202,10.4,10.4,78,0.00,OVC,,0.02,WeatherDisplay:10.37,2013-03-19 12:53:00,
2013-03-19 08:58:00,36.7,29.5,29.63,West,270,12.7,12.7,75,0.00,OVC,,0.02,WeatherDisplay:10.37,2013-03-19 12:58:00,
2013-03-19 09:03:00,36.9,29.4,29.62,SW,225,11.5,11.6,74,0.00,OVC,,0.02,WeatherDisplay:10.37,2013-03-19 13:03:00,
2013-03-19 09:08:00,37.0,29.1,29.62,WSW,248,13.5,13.5,73,0.00,OVC,,0.02,WeatherDisplay:10.37,2013-03-19 13:08:00,
2013-03-19 09:13:00,37.2,29.3,29.62,SW,225,11.5,11.5,73,0.00,OVC,,0.02,WeatherDisplay:10.37,2013-03-19 13:13:00,
2013-03-19 09:18:00,37.6,29.7,29.62,West,270,10.4,10.4,73,0.00,OVC,,0.02,WeatherDisplay:10.37,2013-03-19 13:18:00,
2013-03-19 09:23:00,37.9,29.7,29.62,SW,225,10.4,10.4,72,0.00,OVC,,0.02,WeatherDisplay:10.37,2013-03-19 13:23:00,
2013-03-19 09:28:00,38.5,29.6,29.61,SSW,202,15.5,15.5,70,0.00,OVC,,0.02,WeatherDisplay:10.37,2013-03-19 13:28:00,
2013-03-19 09:33:00,38.8,29.1,29.61,WSW,248,16.1,16.1,68,0.00,OVC,,0.02,WeatherDisplay:10.37,2013-03-19 13:33:00,
2013-03-19 09:38:00,38.8,28.8,29.61,SW,225,18.4,18.4,67,0.00,OVC,,0.02,WeatherDisplay:10.37,2013-03-19 13:38:00,
2013-03-19 09:43:00,38.8,29.1,29.61,SW,225,15.0,15.0,68,0.00,OVC,,0.02,WeatherDisplay:10.37,2013-03-19 13:43:00,
2013-03-19 09:48:00,38.8,29.1,29.61,SSW,202,17.6,17.6,68,0.00,OVC,,0.02,WeatherDisplay:10.37,2013-03-19 13:48:00,
2013-03-19 09:53:00,39.2,29.5,29.61,WSW,248,16.1,16.1,68,0.00,OVC,,0.02,WeatherDisplay:10.37,2013-03-19 13:53:00,
2013-03-19 09:58:00,39.6,29.2,29.61,West,270,18.6,18.6,66,0.00,OVC,,0.02,WeatherDisplay:10.37,2013-03-19 13:58:00,
2013-03-19 10:03:00,39.4,29.0,29.61,SW,225,16.1,16.1,66,0.00,OVC,,0.02,WeatherDisplay:10.37,2013-03-19 14:03:00,
2013-03-19 10:08:00,39.9,29.5,29.61,WSW,248,15.0,15.0,66,0.00,OVC,,0.02,WeatherDisplay:10.37,2013-03-19 14:08:00,
2013-03-19 10:13:00,40.3,29.1,29.60,WSW,248,13.8,13.8,64,0.00,OVC,,0.02,WeatherDisplay:10.37,2013-03-19 14:13:00,
2013-03-19 10:18:00,39.7,28.5,29.60,WSW,248,19.6,19.6,64,0.00,OVC,,0.02,WeatherDisplay:10.37,2013-03-19 14:18:00,
2013-03-19 10:23:00,39.6,28.4,29.60,WSW,248,18.4,18.4,64,0.00,OVC,,0.02,WeatherDisplay:10.37,2013-03-19 14:23:00,
2013-03-19 10:28:00,39.6,28.4,29.60,WSW,248,20.2,20.2,64,0.00,OVC,,0.02,WeatherDisplay:10.37,2013-03-19 14:28:00,
2013-03-19 10:33:00,39.6,28.8,29.60,West,270,12.7,12.7,65,0.00,BKN,,0.02,WeatherDisplay:10.37,2013-03-19 14:33:00,
2013-03-19 10:38:00,40.3,28.7,29.59,WSW,248,17.6,17.6,63,0.00,BKN,,0.02,WeatherDisplay:10.37,2013-03-19 14:38:00,
2013-03-19 10:43:00,40.3,27.9,29.59,WSW,248,15.0,15.0,61,0.00,BKN,,0.02,WeatherDisplay:10.37,2013-03-19 14:43:00,
2013-03-19 10:48:00,40.1,27.7,29.59,WSW,248,24.2,24.2,61,0.00,BKN,,0.02,WeatherDisplay:10.37,2013-03-19 14:48:00,
2013-03-19 10:53:00,40.8,28.0,29.58,SW,225,15.5,15.5,60,0.00,BKN,,0.02,WeatherDisplay:10.37,2013-03-19 14:53:00,
2013-03-19 10:58:00,40.8,28.0,29.58,SW,225,16.1,16.1,60,0.00,BKN,,0.02,WeatherDisplay:10.37,2013-03-19 14:58:00,
2013-03-19 11:03:00,39.9,27.1,29.59,West,270,23.0,23.0,60,0.00,BKN,,0.02,WeatherDisplay:10.37,2013-03-19 15:03:00,
2013-03-19 11:08:00,41.7,28.4,29.59,SSW,202,15.0,15.0,59,0.00,BKN,,0.02,WeatherDisplay:10.37,2013-03-19 15:08:00,
2013-03-19 11:13:00,41.5,28.2,29.58,WSW,248,16.6,16.6,59,0.00,BKN,,0.02,WeatherDisplay:10.37,2013-03-19 15:13:00,
2013-03-19 11:18:00,41.7,27.6,29.58,WSW,248,19.6,19.6,57,0.00,BKN,,0.02,WeatherDisplay:10.37,2013-03-19 15:18:00,
2013-03-19 11:23:00,41.4,27.7,29.58,SW,225,20.7,20.7,58,0.00,BKN,,0.02,WeatherDisplay:10.37,2013-03-19 15:23:00,
2013-03-19 11:28:00,41.9,27.8,29.59,SW,225,18.4,18.4,57,0.00,BKN,,0.02,WeatherDisplay:10.37,2013-03-19 15:28:00,
2013-03-19 11:33:00,41.9,27.8,29.59,SW,225,16.1,16.1,57,0.00,BKN,,0.02,WeatherDisplay:10.37,2013-03-19 15:33:00,
2013-03-19 11:38:00,41.7,28.0,29.58,SW,225,25.3,25.3,58,0.00,BKN,,0.02,WeatherDisplay:10.37,2013-03-19 15:38:00,
2013-03-19 11:43:00,41.7,27.1,29.58,SW,225,27.9,27.9,56,0.00,BKN,,0.02,WeatherDisplay:10.37,2013-03-19 15:43:00,
2013-03-19 11:48:00,42.1,27.5,29.58,WSW,248,31.1,31.1,56,0.00,BKN,,0.02,WeatherDisplay:10.37,2013-03-19 15:48:00,
2013-03-19 11:53:00,41.9,27.3,29.58,WSW,248,23.0,23.0,56,0.00,BKN,,0.02,WeatherDisplay:10.37,2013-03-19 15:53:00,
2013-03-19 11:58:00,41.2,27.1,29.58,West,270,21.9,21.9,57,0.00,BKN,,0.02,WeatherDisplay:10.37,2013-03-19 15:58:00,
2013-03-19 12:03:00,40.8,28.0,29.58,SW,225,22.2,22.2,60,0.00,BKN,,0.02,WeatherDisplay:10.37,2013-03-19 16:03:00,
2013-03-19 12:08:00,41.0,27.8,29.58,WSW,248,26.5,26.5,59,0.00,BKN,,0.02,WeatherDisplay:10.37,2013-03-19 16:08:00,
2013-03-19 12:13:00,42.3,27.7,29.58,SW,225,26.5,26.5,56,0.00,BKN,,0.02,WeatherDisplay:10.37,2013-03-19 16:13:00,
2013-03-19 12:18:00,42.6,26.6,29.58,SW,225,31.5,31.5,53,0.00,BKN,,0.02,WeatherDisplay:10.37,2013-03-19 16:18:00,
2013-03-19 12:23:00,43.3,26.8,29.58,SSW,202,26.3,26.3,52,0.00,BKN,,0.02,WeatherDisplay:10.37,2013-03-19 16:23:00,
2013-03-19 12:28:00,42.4,24.1,29.58,West,270,40.3,40.3,48,0.00,BKN,,0.02,WeatherDisplay:10.37,2013-03-19 16:28:00,
2013-03-19 12:33:00,43.2,24.8,29.58,SW,225,23.2,23.2,48,0.00,FEW,,0.02,WeatherDisplay:10.37,2013-03-19 16:33:00,
2013-03-19 12:38:00,44.4,25.9,29.58,SW,225,23.8,23.8,48,0.00,FEW,,0.02,WeatherDisplay:10.37,2013-03-19 16:38:00,
2013-03-19 12:43:00,43.5,25.1,29.58,WSW,248,26.5,26.5,48,0.00,FEW,,0.02,WeatherDisplay:10.37,2013-03-19 16:43:00,
2013-03-19 12:48:00,42.8,24.4,29.58,SW,225,26.8,26.8,48,0.00,FEW,,0.02,WeatherDisplay:10.37,2013-03-19 16:48:00,
2013-03-19 12:53:00,43.5,24.6,29.57,SW,225,31.1,31.1,47,0.00,FEW,,0.02,WeatherDisplay:10.37,2013-03-19 16:53:00,
2013-03-19 12:58:00,44.1,25.1,29.57,SSW,202,25.3,25.3,47,0.00,FEW,,0.02,WeatherDisplay:10.37,2013-03-19 16:58:00,
2013-03-19 13:03:00,45.1,25.5,29.57,WSW,248,20.7,20.7,46,0.00,FEW,,0.02,WeatherDisplay:10.37,2013-03-19 17:03:00,
2013-03-19 13:08:00,43.9,25.5,29.57,SW,225,26.8,26.8,48,0.00,FEW,,0.02,WeatherDisplay:10.37,2013-03-19 17:08:00,
2013-03-19 13:13:00,42.6,25.2,29.58,WSW,248,24.2,24.2,50,0.00,FEW,,0.02,WeatherDisplay:10.37,2013-03-19 17:13:00,
2013-03-19 13:18:00,42.4,25.1,29.58,WSW,248,21.2,21.2,50,0.00,FEW,,0.02,WeatherDisplay:10.37,2013-03-19 17:18:00,
2013-03-19 13:24:00,41.9,23.1,29.58,SW,225,29.9,29.9,47,0.00,FEW,,0.02,WeatherDisplay:10.37,2013-03-19 17:24:00,
2013-03-19 13:29:00,42.8,21.8,29.58,SW,225,29.9,29.9,43,0.00,FEW,,0.02,WeatherDisplay:10.37,2013-03-19 17:29:00,
2013-03-19 13:34:00,44.2,22.0,29.58,WSW,248,28.8,28.8,41,0.00,SCT,,0.02,WeatherDisplay:10.37,2013-03-19 17:34:00,
2013-03-19 13:39:00,44.6,21.1,29.58,SW,225,26.3,28.3,39,0.00,SCT,,0.02,WeatherDisplay:10.37,2013-03-19 17:39:00,
2013-03-19 13:44:00,44.6,22.3,29.58,WSW,248,28.8,28.8,41,0.00,SCT,,0.02,WeatherDisplay:10.37,2013-03-19 17:44:00,
2013-03-19 13:49:00,43.2,22.2,29.58,WSW,248,29.9,29.9,43,0.00,SCT,,0.02,WeatherDisplay:10.37,2013-03-19 17:49:00,
2013-03-19 13:54:00,43.3,22.8,29.58,WSW,248,31.5,31.5,44,0.00,SCT,,0.02,WeatherDisplay:10.37,2013-03-19 17:54:00,
2013-03-19 13:59:00,43.7,23.7,29.58,West,270,22.7,22.7,45,0.00,SCT,,0.02,WeatherDisplay:10.37,2013-03-19 17:59:00,
2013-03-19 14:04:00,43.3,22.8,29.59,SW,225,28.4,28.4,44,0.00,FEW,,0.02,WeatherDisplay:10.37,2013-03-19 18:04:00,
2013-03-19 14:09:00,42.6,21.6,29.59,SW,225,37.1,37.1,43,0.00,FEW,,0.02,WeatherDisplay:10.37,2013-03-19 18:09:00,
2013-03-19 14:14:00,42.3,21.4,29.59,WSW,248,35.1,35.1,43,0.00,FEW,,0.02,WeatherDisplay:10.37,2013-03-19 18:14:00,
2013-03-19 14:19:00,41.9,20.4,29.59,SW,225,34.5,34.5,42,0.00,FEW,,0.02,WeatherDisplay:10.37,2013-03-19 18:19:00,
2013-03-19 14:24:00,42.4,21.5,29.60,SW,225,23.2,23.2,43,0.00,FEW,,0.02,WeatherDisplay:10.37,2013-03-19 18:24:00,
2013-03-19 14:29:00,41.5,20.6,29.60,SW,225,31.1,31.1,43,0.00,FEW,,0.02,WeatherDisplay:10.37,2013-03-19 18:29:00,
2013-03-19 14:34:00,41.7,21.4,29.60,SW,225,30.4,30.4,44,0.00,FEW,,0.02,WeatherDisplay:10.37,2013-03-19 18:34:00,
2013-03-19 14:39:00,41.5,21.2,29.60,SW,225,31.1,31.1,44,0.00,FEW,,0.02,WeatherDisplay:10.37,2013-03-19 18:39:00,
2013-03-19 14:44:00,41.4,20.5,29.60,SW,225,26.8,26.8,43,0.00,FEW,,0.02,WeatherDisplay:10.37,2013-03-19 18:44:00,
2013-03-19 14:50:00,41.7,21.3,29.60,SW,232,28.0,31.0,44,0.00,FEW,,0.02,WeatherDisplay:10.37,2013-03-19 18:50:00,
2013-03-19 14:55:00,42.7,21.7,29.60,SW,235,22.0,30.0,43,0.00,FEW,,0.02,WeatherDisplay:10.37,2013-03-19 18:55:00,
2013-03-19 14:59:00,41.6,21.3,29.60,SW,236,23.0,30.0,44,0.00,FEW,,0.02,WeatherDisplay:10.37,2013-03-19 18:59:00,
2013-03-19 15:05:00,40.9,21.2,29.60,WSW,240,25.0,34.0,45,0.00,FEW,,0.02,WeatherDisplay:10.37,2013-03-19 19:05:00,
2013-03-19 15:10:00,41.2,20.9,29.60,WSW,248,29.0,34.0,44,0.00,FEW,,0.02,WeatherDisplay:10.37,2013-03-19 19:10:00,
2013-03-19 15:15:00,40.9,20.1,29.61,SW,235,31.0,36.0,43,0.00,FEW,,0.02,WeatherDisplay:10.37,2013-03-19 19:15:00,
2013-03-19 15:19:00,41.3,21.5,29.61,SW,227,23.0,30.0,45,0.00,FEW,,0.02,WeatherDisplay:10.37,2013-03-19 19:19:00,
2013-03-19 15:24:00,42.5,22.1,29.61,WSW,238,20.0,35.0,44,0.00,FEW,,0.02,WeatherDisplay:10.37,2013-03-19 19:24:00,
2013-03-19 15:30:00,43.0,20.9,29.62,SW,234,25.0,36.0,41,0.00,FEW,,0.02,WeatherDisplay:10.37,2013-03-19 19:30:00,
2013-03-19 15:34:00,39.9,18.6,29.62,SW,235,32.0,35.0,42,0.00,FEW,,0.02,WeatherDisplay:10.37,2013-03-19 19:34:00,
2013-03-19 15:39:00,39.5,18.8,29.62,SW,236,30.0,34.0,43,0.00,FEW,,0.02,WeatherDisplay:10.37,2013-03-19 19:39:00,
2013-03-19 15:44:00,39.4,19.3,29.62,WSW,246,28.0,45.0,44,0.00,FEW,,0.02,WeatherDisplay:10.37,2013-03-19 19:44:00,
2013-03-19 15:49:00,39.6,18.9,29.63,WSW,242,26.0,35.0,43,0.00,FEW,,0.02,WeatherDisplay:10.37,2013-03-19 19:49:00,
2013-03-19 15:54:00,41.1,19.2,29.63,SW,235,24.0,31.0,41,0.00,FEW,,0.02,WeatherDisplay:10.37,2013-03-19 19:54:00,
2013-03-19 16:00:00,39.9,19.7,29.63,SW,235,23.0,27.0,44,0.00,FEW,,0.02,WeatherDisplay:10.37,2013-03-19 20:00:00,
2013-03-19 16:04:00,38.2,18.7,29.65,SW,236,28.0,35.0,45,0.00,FEW,,0.02,WeatherDisplay:10.37,2013-03-19 20:04:00,
2013-03-19 16:10:00,38.7,18.6,29.65,WSW,242,31.0,41.0,44,0.00,FEW,,0.02,WeatherDisplay:10.37,2013-03-19 20:10:00,
2013-03-19 16:15:00,39.7,19.0,29.65,WSW,248,34.5,34.5,43,0.00,FEW,,0.02,WeatherDisplay:10.37,2013-03-19 20:15:00,
2013-03-19 16:20:00,39.4,19.3,29.65,SW,225,25.8,25.8,44,0.00,FEW,,0.02,WeatherDisplay:10.37,2013-03-19 20:20:00,
2013-03-19 16:25:00,38.5,17.9,29.66,WSW,248,28.8,28.8,43,0.00,FEW,,0.02,WeatherDisplay:10.37,2013-03-19 20:25:00,
2013-03-19 16:30:00,38.5,17.9,29.66,SW,225,31.1,31.1,43,0.00,FEW,,0.02,WeatherDisplay:10.37,2013-03-19 20:30:00,
2013-03-19 16:35:00,37.8,18.3,29.66,WSW,248,33.5,33.5,45,0.00,FEW,,0.02,WeatherDisplay:10.37,2013-03-19 20:35:00,
2013-03-19 16:40:00,37.6,18.7,29.66,SW,225,27.6,27.6,46,0.00,FEW,,0.02,WeatherDisplay:10.37,2013-03-19 20:40:00,
2013-03-19 16:45:00,37.0,18.1,29.66,WSW,248,29.9,29.9,46,0.00,FEW,,0.02,WeatherDisplay:10.37,2013-03-19 20:45:00,
2013-03-19 16:50:00,37.0,18.6,29.67,SW,225,26.8,26.8,47,0.00,FEW,,0.02,WeatherDisplay:10.37,2013-03-19 20:50:00,
2013-03-19 16:55:00,36.9,18.5,29.67,SW,225,34.5,34.5,47,0.00,FEW,,0.02,WeatherDisplay:10.37,2013-03-19 20:55:00,
2013-03-19 17:00:00,36.9,19.0,29.67,WSW,248,28.8,28.8,48,0.00,FEW,,0.02,WeatherDisplay:10.37,2013-03-19 21:00:00,
2013-03-19 17:05:00,36.9,18.5,29.68,SW,225,27.3,27.3,47,0.00,FEW,,0.02,WeatherDisplay:10.37,2013-03-19 21:05:00,
2013-03-19 17:10:00,36.7,18.8,29.68,WSW,248,25.3,25.3,48,0.00,FEW,,0.02,WeatherDisplay:10.37,2013-03-19 21:10:00,
2013-03-19 17:15:00,36.5,19.1,29.68,SW,225,34.5,34.5,49,0.00,FEW,,0.02,WeatherDisplay:10.37,2013-03-19 21:15:00,
2013-03-19 17:20:00,36.1,19.2,29.68,WSW,248,38.0,38.0,50,0.00,FEW,,0.02,WeatherDisplay:10.37,2013-03-19 21:20:00,
2013-03-19 17:25:00,36.3,19.9,29.68,SW,225,25.3,26.6,51,0.00,FEW,,0.02,WeatherDisplay:10.37,2013-03-19 21:25:00,
2013-03-19 17:30:00,36.3,19.9,29.68,WSW,248,20.7,20.7,51,0.00,FEW,,0.02,WeatherDisplay:10.37,2013-03-19 21:30:00,
2013-03-19 17:35:00,36.0,19.1,29.68,West,270,29.9,29.9,50,0.00,OVC,,0.02,WeatherDisplay:10.37,2013-03-19 21:35:00,
2013-03-19 17:40:00,36.0,20.1,29.69,WSW,248,20.7,20.7,52,0.00,OVC,,0.02,WeatherDisplay:10.37,2013-03-19 21:40:00,
2013-03-19 17:45:00,35.6,19.7,29.69,WSW,248,33.0,33.0,52,0.00,OVC,,0.02,WeatherDisplay:10.37,2013-03-19 21:45:00,
2013-03-19 17:50:00,35.2,20.2,29.70,SW,225,26.3,26.3,54,0.00,OVC,,0.02,WeatherDisplay:10.37,2013-03-19 21:50:00,
2013-03-19 17:55:00,35.2,20.2,29.70,WSW,248,19.6,19.6,54,0.00,OVC,,0.02,WeatherDisplay:10.37,2013-03-19 21:55:00,
2013-03-19 18:00:00,34.7,20.2,29.70,SW,225,34.5,34.5,55,0.00,OVC,,0.02,WeatherDisplay:10.37,2013-03-19 22:00:00,
2013-03-19 18:05:00,34.9,21.2,29.69,West,270,23.0,23.0,57,0.00,OVC,,0.02,WeatherDisplay:10.37,2013-03-19 22:05:00,
2013-03-19 18:10:00,35.1,21.0,29.69,SW,225,31.1,31.1,56,0.00,OVC,,0.02,WeatherDisplay:10.37,2013-03-19 22:10:00,
2013-03-19 18:15:00,34.9,20.8,29.70,WSW,248,22.2,22.2,56,0.00,OVC,,0.02,WeatherDisplay:10.37,2013-03-19 22:15:00,
2013-03-19 18:20:00,34.9,20.8,29.70,WSW,248,21.9,21.9,56,0.00,OVC,,0.02,WeatherDisplay:10.37,2013-03-19 22:20:00,
2013-03-19 18:25:00,34.9,20.8,29.70,SW,225,25.8,25.8,56,0.00,OVC,,0.02,WeatherDisplay:10.37,2013-03-19 22:25:00,
2013-03-19 18:30:00,34.3,21.0,29.71,WSW,248,25.3,25.3,58,0.00,OVC,,0.02,WeatherDisplay:10.37,2013-03-19 22:30:00,
2013-03-19 18:35:00,34.3,20.2,29.71,WSW,248,25.3,25.3,56,0.00,OVC,,0.02,WeatherDisplay:10.37,2013-03-19 22:35:00,
2013-03-19 18:40:00,34.3,21.0,29.71,SW,225,18.4,18.4,58,0.00,OVC,,0.02,WeatherDisplay:10.37,2013-03-19 22:40:00,
2013-03-19 18:45:00,34.0,20.8,29.71,West,270,23.0,23.0,58,0.00,OVC,,0.02,WeatherDisplay:10.37,2013-03-19 22:45:00,
2013-03-19 18:51:00,33.8,21.0,29.72,WSW,248,23.0,23.0,59,0.00,OVC,,0.02,WeatherDisplay:10.37,2013-03-19 22:51:00,
2013-03-19 18:56:00,33.6,21.2,29.72,SW,225,25.3,25.3,60,0.00,OVC,,0.02,WeatherDisplay:10.37,2013-03-19 22:56:00,
2013-03-19 19:01:00,33.6,21.2,29.72,WSW,248,19.6,19.6,60,0.00,OVC,,0.02,WeatherDisplay:10.37,2013-03-19 23:01:00,
2013-03-19 19:06:00,33.6,21.2,29.72,SW,225,25.3,25.3,60,0.00,OVC,,0.02,WeatherDisplay:10.37,2013-03-19 23:06:00,
2013-03-19 19:11:00,33.6,20.8,29.72,SW,225,21.9,21.9,59,0.00,OVC,,0.02,WeatherDisplay:10.37,2013-03-19 23:11:00,
2013-03-19 19:17:00,33.6,20.4,29.72,SW,225,23.0,23.0,58,0.00,OVC,,0.02,WeatherDisplay:10.37,2013-03-19 23:17:00,
2013-03-19 19:22:00,33.8,20.2,29.72,WSW,248,19.6,19.6,57,0.00,OVC,,0.02,WeatherDisplay:10.37,2013-03-19 23:22:00,
2013-03-19 19:27:00,33.8,20.2,29.72,West,270,23.2,23.2,57,0.00,OVC,,0.02,WeatherDisplay:10.37,2013-03-19 23:27:00,
2013-03-19 19:32:00,33.8,19.7,29.72,SW,225,22.2,22.2,56,0.00,OVC,,0.02,WeatherDisplay:10.37,2013-03-19 23:32:00,
2013-03-19 19:37:00,33.8,19.7,29.73,West,270,18.4,18.4,56,0.00,OVC,,0.02,WeatherDisplay:10.37,2013-03-19 23:37:00,
2013-03-19 19:42:00,33.8,19.7,29.73,West,270,13.0,13.0,56,0.00,OVC,,0.02,WeatherDisplay:10.37,2013-03-19 23:42:00,
2013-03-19 19:47:00,32.9,20.9,29.73,WSW,248,26.5,26.5,61,0.00,OVC,,0.02,WeatherDisplay:10.37,2013-03-19 23:47:00,
2013-03-19 19:52:00,33.1,20.3,29.73,WSW,248,17.3,17.3,59,0.00,OVC,,0.02,WeatherDisplay:10.37,2013-03-19 23:52:00,
2013-03-19 19:57:00,33.3,19.7,29.73,West,270,29.9,29.9,57,0.00,OVC,,0.02,WeatherDisplay:10.37,2013-03-19 23:57:00,
2013-03-19 20:02:00,33.3,19.3,29.73,WSW,248,22.2,22.2,56,0.00,OVC,,0.02,WeatherDisplay:10.37,2013-03-20 00:02:00,
2013-03-19 20:07:00,33.4,18.9,29.73,SW,225,26.5,26.5,55,0.00,OVC,,0.02,WeatherDisplay:10.37,2013-03-20 00:07:00,
2013-03-19 20:12:00,33.4,18.5,29.73,SW,225,29.9,29.9,54,0.00,OVC,,0.02,WeatherDisplay:10.37,2013-03-20 00:12:00,
2013-03-19 20:17:00,33.4,18.5,29.73,SW,225,17.3,17.3,54,0.00,OVC,,0.02,WeatherDisplay:10.37,2013-03-20 00:17:00,
2013-03-19 20:22:00,33.4,18.5,29.73,West,270,16.1,16.1,54,0.00,OVC,,0.02,WeatherDisplay:10.37,2013-03-20 00:22:00,
2013-03-19 20:27:00,32.7,18.7,29.74,West,270,23.0,23.0,56,0.00,OVC,,0.02,WeatherDisplay:10.37,2013-03-20 00:27:00,
2013-03-19 20:33:00,32.2,19.1,29.74,SW,225,20.7,20.7,58,0.00,OVC,,0.02,WeatherDisplay:10.37,2013-03-20 00:33:00,
2013-03-19 20:38:00,32.2,19.5,29.74,WSW,248,19.6,19.6,59,0.00,OVC,,0.02,WeatherDisplay:10.37,2013-03-20 00:38:00,
2013-03-19 20:43:00,32.2,19.5,29.74,WSW,248,18.6,18.6,59,0.00,OVC,,0.02,WeatherDisplay:10.37,2013-03-20 00:43:00,
2013-03-19 20:48:00,32.0,18.9,29.74,West,270,18.4,18.4,58,0.00,OVC,,0.02,WeatherDisplay:10.37,2013-03-20 00:48:00,
2013-03-19 20:53:00,32.0,18.9,29.75,West,270,21.9,21.9,58,0.00,OVC,,0.02,WeatherDisplay:10.37,2013-03-20 00:53:00,
2013-03-19 20:58:00,31.8,18.7,29.75,SW,225,24.2,24.2,58,0.00,OVC,,0.02,WeatherDisplay:10.37,2013-03-20 00:58:00,
2013-03-19 21:03:00,31.6,18.9,29.75,WSW,248,16.1,16.1,59,0.00,OVC,,0.02,WeatherDisplay:10.37,2013-03-20 01:03:00,
2013-03-19 21:08:00,31.6,18.5,29.75,WSW,248,19.6,19.6,58,0.00,OVC,,0.02,WeatherDisplay:10.37,2013-03-20 01:08:00,
2013-03-19 21:13:00,31.6,18.5,29.75,WSW,248,16.1,16.1,58,0.00,OVC,,0.02,WeatherDisplay:10.37,2013-03-20 01:13:00,
2013-03-19 21:18:00,31.6,18.1,29.76,WSW,248,11.5,11.5,57,0.00,OVC,,0.02,WeatherDisplay:10.37,2013-03-20 01:18:00,
2013-03-19 21:23:00,31.6,18.1,29.76,WSW,248,11.5,11.5,57,0.00,OVC,,0.02,WeatherDisplay:10.37,2013-03-20 01:23:00,
2013-03-19 21:28:00,31.5,18.0,29.76,West,270,18.1,18.1,57,0.00,OVC,,0.02,WeatherDisplay:10.37,2013-03-20 01:28:00,
2013-03-19 21:33:00,31.3,17.4,29.76,WSW,248,16.1,16.1,56,0.00,OVC,,0.02,WeatherDisplay:10.37,2013-03-20 01:33:00,
2013-03-19 21:38:00,31.5,17.2,29.76,WSW,248,19.6,19.6,55,0.00,OVC,,0.02,WeatherDisplay:10.37,2013-03-20 01:38:00,
2013-03-19 21:43:00,31.5,17.2,29.76,SW,225,19.6,19.6,55,0.00,OVC,,0.02,WeatherDisplay:10.37,2013-03-20 01:43:00,
2013-03-19 21:48:00,31.3,17.0,29.76,SW,225,26.3,26.3,55,0.00,OVC,,0.02,WeatherDisplay:10.37,2013-03-20 01:48:00,
2013-03-19 21:53:00,31.3,17.0,29.76,SSW,202,19.6,19.6,55,0.00,OVC,,0.02,WeatherDisplay:10.37,2013-03-20 01:53:00,
2013-03-19 21:58:00,31.1,16.8,29.76,WSW,248,17.6,17.6,55,0.00,OVC,,0.02,WeatherDisplay:10.37,2013-03-20 01:58:00,
2013-03-19 22:03:00,31.1,16.8,29.76,WSW,248,21.9,21.9,55,0.00,OVC,,0.02,WeatherDisplay:10.37,2013-03-20 02:03:00,
2013-03-19 22:08:00,31.1,16.8,29.76,SW,225,20.7,20.7,55,0.00,OVC,,0.02,WeatherDisplay:10.37,2013-03-20 02:08:00,
2013-03-19 22:13:00,31.1,16.8,29.76,WSW,248,23.2,23.2,55,0.00,OVC,,0.02,WeatherDisplay:10.37,2013-03-20 02:13:00,
2013-03-19 22:18:00,31.1,17.2,29.76,West,270,19.6,19.6,56,0.00,OVC,,0.02,WeatherDisplay:10.37,2013-03-20 02:18:00,
2013-03-19 22:23:00,30.9,17.0,29.76,SW,225,21.2,21.2,56,0.00,OVC,,0.02,WeatherDisplay:10.37,2013-03-20 02:23:00,
2013-03-19 22:28:00,30.9,17.0,29.77,SW,225,20.7,20.7,56,0.00,OVC,,0.02,WeatherDisplay:10.37,2013-03-20 02:28:00,
2013-03-19 22:33:00,30.9,17.0,29.77,WSW,248,24.2,24.2,56,0.00,CLR,,0.02,WeatherDisplay:10.37,2013-03-20 02:33:00,
2013-03-19 22:38:00,30.7,17.3,29.77,SSW,202,20.7,20.7,57,0.00,CLR,,0.02,WeatherDisplay:10.37,2013-03-20 02:38:00,
2013-03-19 22:43:00,30.7,17.3,29.77,SW,225,16.6,16.6,57,0.00,CLR,,0.02,WeatherDisplay:10.37,2013-03-20 02:43:00,
2013-03-19 22:48:00,30.7,17.3,29.77,SW,225,16.6,16.6,57,0.00,CLR,,0.02,WeatherDisplay:10.37,2013-03-20 02:48:00,
2013-03-19 22:53:00,30.7,17.3,29.77,WSW,248,18.1,18.1,57,0.00,CLR,,0.02,WeatherDisplay:10.37,2013-03-20 02:53:00,
2013-03-19 22:58:00,30.6,17.2,29.77,SW,225,19.6,19.6,57,0.00,CLR,,0.02,WeatherDisplay:10.37,2013-03-20 02:58:00,
2013-03-19 23:03:00,30.6,17.6,29.77,SW,225,19.6,19.6,58,0.00,CLR,,0.02,WeatherDisplay:10.37,2013-03-20 03:03:00,
2013-03-19 23:08:00,30.6,17.6,29.77,WSW,248,18.4,18.4,58,0.00,CLR,,0.02,WeatherDisplay:10.37,2013-03-20 03:08:00,
2013-03-19 23:13:00,30.4,17.4,29.78,SW,225,20.7,20.7,58,0.00,CLR,,0.02,WeatherDisplay:10.37,2013-03-20 03:13:00,
2013-03-19 23:18:00,30.4,17.8,29.78,SW,225,16.1,16.1,59,0.00,CLR,,0.02,WeatherDisplay:10.37,2013-03-20 03:18:00,
2013-03-19 23:23:00,30.4,17.8,29.78,WSW,248,17.3,17.3,59,0.00,CLR,,0.02,WeatherDisplay:10.37,2013-03-20 03:23:00,
2013-03-19 23:28:00,30.2,17.6,29.78,West,270,13.8,13.8,59,0.00,CLR,,0.02,WeatherDisplay:10.37,2013-03-20 03:28:00,
2013-03-19 23:33:00,30.2,18.0,29.78,SW,225,17.3,17.3,60,0.00,CLR,,0.02,WeatherDisplay:10.37,2013-03-20 03:33:00,
2013-03-19 23:38:00,30.0,17.8,29.77,WSW,248,17.3,17.3,60,0.00,CLR,,0.02,WeatherDisplay:10.37,2013-03-20 03:38:00,
2013-03-19 23:43:00,29.8,17.6,29.77,SW,225,15.0,15.0,60,0.00,CLR,,0.02,WeatherDisplay:10.37,2013-03-20 03:43:00,
2013-03-19 23:48:00,29.8,17.6,29.77,SW,225,13.8,13.8,60,0.00,CLR,,0.02,WeatherDisplay:10.37,2013-03-20 03:48:00,
2013-03-19 23:53:00,30.0,18.2,29.78,SW,225,18.4,18.4,61,0.00,CLR,,0.02,WeatherDisplay:10.37,2013-03-20 03:53:00,
2013-03-19 23:58:00,30.0,18.2,29.78,SW,225,18.4,18.4,61,0.00,CLR,,0.02,WeatherDisplay:10.37,2013-03-20 03:58:00,